La Grande, OR

9:02 AM PST on December 12, 2019 (GMT -0800)
La Grande-Union County

Weather History for KLGD - August, 2019

Change the Weather History Date:

Friday, August 2, 2019

  Actual Average Record
Temperature  
Mean Temperature 78 °F -  
Max Temperature 90 °F 84 °F 100 °F (1966)
Min Temperature 66 °F 50 °F 40 °F (1987)
Cooling Degree Days 13    
Growing Degree Days 28 (Base 50)    
Moisture  
Dew Point 48 °F    
Average Humidity 38    
Maximum Humidity 55    
Minimum Humidity 24    
Precipitation  
Precipitation 0.00 in - - ()
Sea Level Pressure  
Sea Level Pressure 30.47 in    
Wind  
Wind Speed 12 mph (NW)    
Max Wind Speed 17 mph    
Max Gust Speed 22 mph    
Visibility 10 miles    
Events      
Averages and records for this station are not official NWS values.
T = Trace of Precipitation, MM = Missing Value Source: NWS Daily Summary

Daily Weather History Graph

Daily Weather History Graph

Search for Another Location

Airport or City:

Astronomy

Aug. 02, 2019 Rise Set
Actual Time 5:37 AM PDT 8:18 PM PDT
Civil Twilight 5:03 AM PDT 8:52 PM PDT
Nautical Twilight 4:20 AM PDT 9:34 PM PDT
Astronomical Twilight 3:31 AM PDT 10:23 PM PDT
Moon 7:24 AM PDT (8/2) 9:44 PM PDT (8/2)
Length of Visible Light 15h 48m
Length of Day
14h 40m
Waxing Crescent, 4% of the Moon is Illuminated
Aug 2
Waxing Crescent
Aug 7
First Quarter
Aug 15
Full
Aug 23
Last Quarter
Aug 30
New

Hourly Weather History & Observations

Time (PDT) Temp. Dew Point Humidity Pressure Visibility Wind Dir Wind Speed Gust Speed Precip Events Conditions
12:56 AM 69.1 °F 43.0 °F 39% 30.41 in 10.0 mi North 6.9 mph - N/A   Clear
1:56 AM 70.0 °F 42.1 °F 36% 30.42 in 10.0 mi NW 15.0 mph - N/A   Clear
2:56 AM 72.0 °F 42.1 °F 34% 30.43 in 10.0 mi WNW 16.1 mph - N/A   Clear
3:56 AM 70.0 °F 43.0 °F 38% 30.44 in 10.0 mi WNW 15.0 mph - N/A   Clear
4:56 AM 69.1 °F 43.0 °F 39% 30.46 in 10.0 mi WNW 16.1 mph - N/A   Clear
5:56 AM 66.9 °F 46.0 °F 47% 30.48 in 10.0 mi WNW 17.3 mph - N/A   Clear
6:56 AM 69.1 °F 48.0 °F 47% 30.50 in 10.0 mi WNW 16.1 mph - N/A   Clear
7:56 AM 71.1 °F 50.0 °F 47% 30.50 in 10.0 mi WNW 15.0 mph 21.9 mph N/A   Clear
8:56 AM 73.0 °F 51.1 °F 46% 30.51 in 10.0 mi WNW 16.1 mph - N/A   Clear
9:56 AM 77.0 °F 51.1 °F 40% 30.51 in 10.0 mi WNW 10.4 mph 17.3 mph N/A   Clear
10:56 AM 80.1 °F 50.0 °F 35% 30.50 in 10.0 mi Variable 3.5 mph - N/A   Clear
11:56 AM 82.9 °F 50.0 °F 32% 30.49 in 10.0 mi NNE 9.2 mph - N/A   Clear
12:56 PM 84.0 °F 50.0 °F 31% 30.47 in 10.0 mi Variable 6.9 mph - N/A   Clear
1:56 PM 87.1 °F 50.0 °F 28% 30.45 in 10.0 mi NNE 5.8 mph - N/A   Clear
2:56 PM 90.0 °F 48.9 °F 24% 30.43 in 10.0 mi WNW 12.7 mph - N/A   Clear
3:56 PM 89.1 °F 52.0 °F 28% 30.43 in 10.0 mi WNW 16.1 mph 19.6 mph N/A   Clear
4:56 PM 89.1 °F 51.1 °F 27% 30.43 in 10.0 mi NW 16.1 mph 19.6 mph N/A   Clear
5:56 PM 84.0 °F 48.0 °F 28% 30.44 in 10.0 mi NW 15.0 mph - N/A   Partly Cloudy
6:56 PM 81.0 °F 50.0 °F 34% 30.45 in 10.0 mi NW 16.1 mph - N/A   Partly Cloudy
7:56 PM 78.1 °F 51.1 °F 39% 30.47 in 10.0 mi NW 16.1 mph 21.9 mph N/A   Clear
8:56 PM 75.0 °F 46.9 °F 37% 30.49 in 10.0 mi WNW 9.2 mph - N/A   Clear
9:56 PM 73.0 °F 51.1 °F 46% 30.51 in 10.0 mi WNW 13.8 mph - N/A   Clear
10:56 PM 71.1 °F 52.0 °F 51% 30.52 in 10.0 mi WNW 11.5 mph - N/A   Clear
11:56 PM 70.0 °F 53.1 °F 55% 30.53 in 10.0 mi NW 12.7 mph - N/A   Clear